Topeka, KS

6:04 PM CST on February 23, 2017 (GMT -0600)
Billard Municipal

Weather History for KTOP - September, 2011

Change the Weather History Date:

Sunday, September 25, 2011

  Actual Average Record
Temperature  
Mean Temperature 57 °F 64 °F  
Max Temperature 70 °F 77 °F 93 °F (1898)
Min Temperature 43 °F 52 °F 33 °F (1989)
Degree Days  
Heating Degree Days 8 4  
Month to date heating degree days 69 41  
Since 1 July heating degree days 69 43  
Cooling Degree Days 0 3  
Month to date cooling degree days 115 151  
Year to date cooling degree days 1869 1379  
Growing Degree Days 6 (Base 50)    
Moisture  
Dew Point 43 °F    
Average Humidity 70    
Maximum Humidity 100    
Minimum Humidity 40    
Precipitation  
Precipitation 0.00 in 0.13 in 1.64 in (1887)
Month to date precipitation 1.74 3.07  
Year to date precipitation 24.39 29.64  
Snow  
Snow 0.00 in 0.00 in 0.00 in ()
Month to date snowfall 0.0 0.0  
Year to date snowfall 38.5 11.3  
Since 1 July snowfall 0.0 0.0  
Snow Depth 0.00 in    
Sea Level Pressure  
Sea Level Pressure 29.91 in    
Wind  
Wind Speed 3 mph (NE)    
Max Wind Speed 14 mph    
Max Gust Speed 17 mph    
Visibility 10 miles    
Events      
T = Trace of Precipitation, MM = Missing Value Source: NWS Daily Summary

Daily Weather History Graph

Daily Weather History Graph

Search for Another Location

Airport or City:

Trip Planner

Search our weather history database for the weather conditions in past years. The results will help you decide how hot, cold, wet, or windy it might be!

Date:

Astronomy

Sep. 25, 2011 Rise Set
Actual Time 7:12 AM CDT 7:15 PM CDT
Civil Twilight 6:46 AM CDT 7:41 PM CDT
Nautical Twilight 6:14 AM CDT 8:12 PM CDT
Astronomical Twilight 5:43 AM CDT 8:44 PM CDT
Moon 5:01 AM CDT (9/25) 5:56 PM CDT (9/25)
Length of Visible Light 12h 55m
Length of Day
12h 02m
Waning Crescent, 5% of the Moon is Illuminated
Sep 25
Waning Crescent
Sep 27
New
Oct 3
First Quarter
Oct 11
Full
Oct 19
Last Quarter

Hourly Weather History & Observations

Time (CDT) Temp. Windchill Dew Point Humidity Pressure Visibility Wind Dir Wind Speed Gust Speed Precip Events Conditions
12:53 AM 51.1 °F - 43.0 °F 74% 29.92 in 10.0 mi Calm Calm - N/A   Clear
1:53 AM 50.0 °F - 43.0 °F 77% 29.92 in 10.0 mi Calm Calm - N/A   Clear
2:53 AM 48.9 °F - 42.1 °F 77% 29.92 in 10.0 mi Calm Calm - N/A   Clear
3:53 AM 45.0 °F - 42.1 °F 90% 29.91 in 10.0 mi Calm Calm - N/A   Clear
4:53 AM 46.0 °F - 42.1 °F 86% 29.91 in 10.0 mi Calm Calm - N/A   Clear
5:53 AM 45.0 °F 42.6 °F 41.0 °F 86% 29.92 in 10.0 mi NNE 4.6 mph - N/A   Clear
6:53 AM 45.0 °F - 41.0 °F 86% 29.94 in 10.0 mi Calm Calm - N/A   Clear
7:53 AM 45.0 °F - 42.1 °F 90% 29.96 in 10.0 mi Calm Calm - N/A   Clear
8:53 AM 51.1 °F - 45.0 °F 80% 29.95 in 10.0 mi NNE 5.8 mph - N/A   Clear
9:53 AM 55.4 °F - 46.4 °F 72% 29.96 in 10.0 mi ENE 5.8 mph - N/A   Clear
10:53 AM 61.0 °F - 45.0 °F 56% 29.96 in 10.0 mi Variable 5.8 mph - N/A   Clear
11:53 AM 64.0 °F - 44.1 °F 48% 29.95 in 10.0 mi NE 5.8 mph - N/A   Clear
12:53 PM 66.0 °F - 43.0 °F 43% 29.93 in 10.0 mi NE 11.5 mph - N/A   Scattered Clouds
1:53 PM 64.4 °F - 42.8 °F 45% 29.91 in 10.0 mi Calm Calm - N/A   Scattered Clouds
2:53 PM 66.9 °F - 43.0 °F 42% 29.88 in 10.0 mi North 9.2 mph - N/A   Mostly Cloudy
3:53 PM 64.4 °F - 42.8 °F 45% 29.89 in 10.0 mi NNE 8.1 mph - N/A   Mostly Cloudy
4:53 PM 66.9 °F - 42.1 °F 40% 29.87 in 10.0 mi NE 10.4 mph 16.1 mph N/A   Partly Cloudy
5:53 PM 66.9 °F - 41.0 °F 39% 29.88 in 10.0 mi NE 6.9 mph - N/A   Clear
6:53 PM 64.0 °F - 42.1 °F 45% 29.88 in 10.0 mi North 3.5 mph - N/A   Clear
7:53 PM 53.1 °F - 46.0 °F 77% 29.89 in 10.0 mi Calm Calm - N/A   Clear
8:53 PM 53.1 °F - 46.0 °F 77% 29.90 in 10.0 mi Calm Calm - N/A   Clear
9:53 PM 51.1 °F - 46.0 °F 83% 29.91 in 10.0 mi Calm Calm - N/A   Clear
10:53 PM 48.0 °F - 46.0 °F 93% 29.90 in 10.0 mi Calm Calm - N/A   Clear
11:53 PM 46.0 °F - 46.0 °F 100% 29.89 in 9.0 mi Calm Calm - N/A   Clear